Time,TemperatureF,DewpointF,PressureIn,WindDirection,WindDirectionDegrees,WindSpeedMPH,WindSpeedGustMPH,Humidity,HourlyPrecipIn,Conditions,Clouds,dailyrainin,SoftwareType,DateUTC
2013-04-30 00:00:00,82.4,20.3,29.46,WSW,246,3.0,18.0,10,0.00,,,0.00,Wunderground v.1.15,2013-04-30 07:00:00,
2013-04-30 00:10:00,80.9,21.4,29.46,WSW,243,1.0,18.0,11,0.00,,,0.00,Wunderground v.1.15,2013-04-30 07:10:00,
2013-04-30 00:15:00,79.4,22.3,29.47,ENE,75,1.0,18.0,12,0.00,,,0.00,Wunderground v.1.15,2013-04-30 07:15:00,
2013-04-30 00:20:00,78.1,23.2,29.47,ENE,72,1.0,18.0,13,0.00,,,0.00,Wunderground v.1.15,2013-04-30 07:20:00,
2013-04-30 00:30:00,76.7,22.1,29.47,ENE,65,1.0,18.0,13,0.00,,,0.00,Wunderground v.1.15,2013-04-30 07:30:00,
2013-04-30 00:40:00,75.8,21.4,29.47,ENE,66,1.0,1.0,13,0.00,,,0.00,Wunderground v.1.15,2013-04-30 07:40:00,
2013-04-30 00:45:00,76.0,21.6,29.48,ENE,66,0.0,18.0,13,0.00,,,0.00,Wunderground v.1.15,2013-04-30 07:45:00,
2013-04-30 00:55:00,75.3,22.8,29.48,ENE,66,1.0,18.0,14,0.00,,,0.00,Wunderground v.1.15,2013-04-30 07:55:00,
2013-04-30 01:00:00,74.6,22.2,29.48,ENE,66,0.0,18.0,14,0.00,,,0.00,Wunderground v.1.15,2013-04-30 08:00:00,
2013-04-30 01:10:00,73.9,21.7,29.48,ENE,66,0.0,18.0,14,0.00,,,0.00,Wunderground v.1.15,2013-04-30 08:10:00,
2013-04-30 01:15:00,73.2,22.7,29.48,ENE,66,0.0,18.0,15,0.00,,,0.00,Wunderground v.1.15,2013-04-30 08:15:00,
2013-04-30 01:25:00,72.3,22.0,29.48,SSW,195,1.0,18.0,15,0.00,,,0.00,Wunderground v.1.15,2013-04-30 08:25:00,
2013-04-30 01:35:00,71.8,21.6,29.48,SSW,195,1.0,18.0,15,0.00,,,0.00,Wunderground v.1.15,2013-04-30 08:35:00,
2013-04-30 01:40:00,71.6,21.5,29.48,SSW,195,1.0,1.0,15,0.00,,,0.00,Wunderground v.1.15,2013-04-30 08:40:00,
2013-04-30 01:50:00,72.0,21.8,29.49,South,184,1.0,18.0,15,0.00,,,0.00,Wunderground v.1.15,2013-04-30 08:50:00,
2013-04-30 01:55:00,72.8,20.8,29.49,South,184,2.0,18.0,14,0.00,,,0.00,Wunderground v.1.15,2013-04-30 08:55:00,
2013-04-30 02:05:00,72.8,20.8,29.49,South,184,1.0,18.0,14,0.00,,,0.00,Wunderground v.1.15,2013-04-30 09:05:00,
2013-04-30 02:10:00,72.7,20.7,29.49,South,184,1.0,18.0,14,0.00,,,0.00,Wunderground v.1.15,2013-04-30 09:10:00,
2013-04-30 02:20:00,72.1,20.2,29.48,South,184,1.0,18.0,14,0.00,,,0.00,Wunderground v.1.15,2013-04-30 09:20:00,
2013-04-30 02:30:00,70.6,20.7,29.48,South,185,1.0,18.0,15,0.00,,,0.00,Wunderground v.1.15,2013-04-30 09:30:00,
2013-04-30 02:35:00,69.9,20.1,29.48,South,185,2.0,18.0,15,0.00,,,0.00,Wunderground v.1.15,2013-04-30 09:35:00,
2013-04-30 02:45:00,69.6,19.9,29.48,SSW,192,2.0,18.0,15,0.00,,,0.00,Wunderground v.1.15,2013-04-30 09:45:00,
2013-04-30 02:55:00,69.3,19.6,29.48,SSW,193,2.0,18.0,15,0.00,,,0.00,Wunderground v.1.15,2013-04-30 09:55:00,
2013-04-30 03:00:00,68.9,20.8,29.49,SSW,193,1.0,18.0,16,0.00,,,0.00,Wunderground v.1.15,2013-04-30 10:00:00,
2013-04-30 03:10:00,68.8,19.2,29.49,SSW,193,2.0,2.0,15,0.00,,,0.00,Wunderground v.1.15,2013-04-30 10:10:00,
2013-04-30 03:20:00,67.8,19.9,29.49,SSW,193,0.0,18.0,16,0.00,,,0.00,Wunderground v.1.15,2013-04-30 10:20:00,
2013-04-30 03:25:00,67.3,20.9,29.49,SSW,192,1.0,18.0,17,0.00,,,0.00,Wunderground v.1.15,2013-04-30 10:25:00,
2013-04-30 03:35:00,66.9,20.6,29.50,SSW,192,0.0,18.0,17,0.00,,,0.00,Wunderground v.1.15,2013-04-30 10:35:00,
2013-04-30 03:45:00,66.8,20.5,29.50,SSW,192,0.0,18.0,17,0.00,,,0.00,Wunderground v.1.15,2013-04-30 10:45:00,
2013-04-30 03:50:00,66.1,21.3,29.50,SSW,192,0.0,18.0,18,0.00,,,0.00,Wunderground v.1.15,2013-04-30 10:50:00,
2013-04-30 04:00:00,65.2,21.9,29.50,SSW,192,0.0,18.0,19,0.00,,,0.00,Wunderground v.1.15,2013-04-30 11:00:00,
2013-04-30 04:10:00,64.7,22.7,29.50,SSW,192,0.0,18.0,20,0.00,,,0.00,Wunderground v.1.15,2013-04-30 11:10:00,
2013-04-30 04:20:00,64.2,21.0,29.51,SSW,192,0.0,18.0,19,0.00,,,0.00,Wunderground v.1.15,2013-04-30 11:20:00,
2013-04-30 15:34:00,94.9,21.2,29.46,NW,320,6.0,8.0,7,0.00,,,0.00,Wunderground v.1.15,2013-04-30 22:34:00,
2013-04-30 15:40:00,94.7,21.1,29.46,SW,222,7.0,11.0,7,0.00,,,0.00,Wunderground v.1.15,2013-04-30 22:40:00,
2013-04-30 15:49:00,94.7,17.5,29.45,SW,236,7.0,9.0,6,0.00,,,0.00,Wunderground v.1.15,2013-04-30 22:49:00,
2013-04-30 15:55:00,94.7,21.1,29.45,West,267,7.0,7.0,7,0.00,,,0.00,Wunderground v.1.15,2013-04-30 22:55:00,
2013-04-30 16:05:00,95.1,17.8,29.45,West,265,5.0,6.0,6,0.00,,,0.00,Wunderground v.1.15,2013-04-30 23:05:00,
2013-04-30 16:15:00,94.7,21.1,29.45,SW,232,6.0,7.0,7,0.00,,,0.00,Wunderground v.1.15,2013-04-30 23:15:00,
2013-04-30 16:25:00,94.3,20.8,29.45,South,184,5.0,12.0,7,0.00,,,0.00,Wunderground v.1.15,2013-04-30 23:25:00,
2013-04-30 16:30:00,94.9,21.2,29.44,WNW,299,5.0,5.0,7,0.00,,,0.00,Wunderground v.1.15,2013-04-30 23:30:00,
2013-04-30 16:40:00,94.5,20.9,29.44,West,270,7.0,18.0,7,0.00,,,0.00,Wunderground v.1.15,2013-04-30 23:40:00,
2013-04-30 16:50:00,93.8,16.8,29.44,SW,222,6.0,18.0,6,0.00,,,0.00,Wunderground v.1.15,2013-04-30 23:50:00,
2013-04-30 16:59:00,92.9,16.2,29.45,South,186,8.0,18.0,6,0.00,,,0.00,Wunderground v.1.15,2013-04-30 23:59:00,
2013-04-30 17:09:00,93.2,16.4,29.45,SW,216,7.0,18.0,6,0.00,,,0.00,Wunderground v.1.15,2013-05-01 00:09:00,
2013-04-30 17:15:00,93.2,16.4,29.46,West,265,7.0,18.0,6,0.00,,,0.00,Wunderground v.1.15,2013-05-01 00:15:00,
2013-04-30 17:25:00,92.7,16.0,29.46,South,182,7.0,18.0,6,0.00,,,0.00,Wunderground v.1.15,2013-05-01 00:25:00,
2013-04-30 17:34:00,92.1,22.3,29.47,WSW,244,8.0,18.0,8,0.00,,,0.00,Wunderground v.1.15,2013-05-01 00:34:00,
2013-04-30 17:44:00,92.5,19.5,29.46,SSW,196,4.0,18.0,7,0.00,,,0.00,Wunderground v.1.15,2013-05-01 00:44:00,
2013-04-30 17:50:00,92.1,19.2,29.46,SW,222,5.0,18.0,7,0.00,,,0.00,Wunderground v.1.15,2013-05-01 00:50:00,
2013-04-30 17:59:00,91.4,18.7,29.47,WSW,244,8.0,8.0,7,0.00,,,0.00,Wunderground v.1.15,2013-05-01 00:59:00,
2013-04-30 18:09:00,91.0,21.5,29.47,WSW,246,4.0,18.0,8,0.00,,,0.00,Wunderground v.1.15,2013-05-01 01:09:00,
2013-04-30 18:15:00,90.5,21.1,29.45,SSW,213,6.0,18.0,8,0.00,,,0.00,Wunderground v.1.15,2013-05-01 01:15:00,
2013-04-30 18:25:00,89.9,20.7,29.45,SSW,210,7.0,18.0,8,0.00,,,0.00,Wunderground v.1.15,2013-05-01 01:25:00,
2013-04-30 18:34:00,89.3,17.1,29.45,SSW,200,7.0,18.0,7,0.00,,,0.00,Wunderground v.1.15,2013-05-01 01:34:00,
2013-04-30 18:44:00,88.8,19.9,29.46,SW,230,7.0,8.0,8,0.00,,,0.00,Wunderground v.1.15,2013-05-01 01:44:00,
2013-04-30 18:50:00,88.6,19.7,29.46,SW,223,8.0,8.0,8,0.00,,,0.00,Wunderground v.1.15,2013-05-01 01:50:00,
2013-04-30 19:00:00,88.2,19.4,29.47,SSW,193,8.0,18.0,8,0.00,,,0.00,Wunderground v.1.15,2013-05-01 02:00:00,
2013-04-30 19:10:00,87.4,21.6,29.47,SW,223,5.0,5.0,9,0.00,,,0.00,Wunderground v.1.15,2013-05-01 02:10:00,
2013-04-30 19:19:00,86.7,21.1,29.46,SW,227,5.0,18.0,9,0.00,,,0.00,Wunderground v.1.15,2013-05-01 02:19:00,
2013-04-30 19:29:00,86.3,20.8,29.47,WSW,247,4.0,18.0,9,0.00,,,0.00,Wunderground v.1.15,2013-05-01 02:29:00,
2013-04-30 19:35:00,85.9,20.5,29.47,WSW,248,4.0,18.0,9,0.00,,,0.00,Wunderground v.1.15,2013-05-01 02:35:00,
2013-04-30 19:45:00,85.3,22.5,29.48,West,263,4.0,18.0,10,0.00,,,0.00,Wunderground v.1.15,2013-05-01 02:45:00,
2013-04-30 19:54:00,84.7,22.1,29.48,West,274,5.0,18.0,10,0.00,,,0.00,Wunderground v.1.15,2013-05-01 02:54:00,
2013-04-30 20:00:00,84.5,24.2,29.49,WSW,248,6.0,18.0,11,0.00,,,0.00,Wunderground v.1.15,2013-05-01 03:00:00,
2013-04-30 20:10:00,84.1,23.9,29.49,West,280,7.0,7.0,11,0.00,,,0.00,Wunderground v.1.15,2013-05-01 03:10:00,
2013-04-30 20:20:00,83.8,23.7,29.48,WSW,251,6.0,18.0,11,0.00,,,0.00,Wunderground v.1.15,2013-05-01 03:20:00,
2013-04-30 20:30:00,83.4,25.4,29.49,WSW,248,5.0,18.0,12,0.00,,,0.00,Wunderground v.1.15,2013-05-01 03:30:00,
2013-04-30 20:39:00,83.0,25.1,29.49,West,265,5.0,5.0,12,0.00,,,0.00,Wunderground v.1.15,2013-05-01 03:39:00,
2013-04-30 20:45:00,82.6,24.8,29.51,West,271,4.0,18.0,12,0.00,,,0.00,Wunderground v.1.15,2013-05-01 03:45:00,
2013-04-30 20:54:00,82.2,24.5,29.51,WNW,302,5.0,5.0,12,0.00,,,0.00,Wunderground v.1.15,2013-05-01 03:54:00,
2013-04-30 21:00:00,81.8,24.2,29.51,NW,320,4.0,18.0,12,0.00,,,0.00,Wunderground v.1.15,2013-05-01 04:00:00,
2013-04-30 21:04:00,81.4,21.8,29.51,NW,308,3.0,18.0,11,0.00,,,0.00,Wunderground v.1.15,2013-05-01 04:04:00,
2013-04-30 21:10:00,81.2,23.7,29.51,NW,311,3.0,3.0,12,0.00,,,0.00,Wunderground v.1.15,2013-05-01 04:10:00,
2013-04-30 21:14:00,80.9,23.5,29.51,NW,308,2.0,18.0,12,0.00,,,0.00,Wunderground v.1.15,2013-05-01 04:14:00,
2013-04-30 21:19:00,80.3,24.9,29.51,NW,313,1.0,18.0,13,0.00,,,0.00,Wunderground v.1.15,2013-05-01 04:19:00,
2013-04-30 21:25:00,79.9,22.7,29.51,North,353,1.0,18.0,12,0.00,,,0.00,Wunderground v.1.15,2013-05-01 04:25:00,
2013-04-30 21:29:00,79.6,22.5,29.53,North,354,1.0,1.0,12,0.00,,,0.00,Wunderground v.1.15,2013-05-01 04:29:00,
2013-04-30 21:35:00,79.0,22.0,29.53,North,353,1.0,18.0,12,0.00,,,0.00,Wunderground v.1.15,2013-05-01 04:35:00,
2013-04-30 21:44:00,78.1,21.3,29.54,North,353,1.0,18.0,12,0.00,,,0.00,Wunderground v.1.15,2013-05-01 04:44:00,
2013-04-30 21:50:00,77.9,21.2,29.54,North,353,1.0,1.0,12,0.00,,,0.00,Wunderground v.1.15,2013-05-01 04:50:00,
2013-04-30 21:59:00,77.4,22.7,29.54,North,352,0.0,18.0,13,0.00,,,0.00,Wunderground v.1.15,2013-05-01 04:59:00,
2013-04-30 22:05:00,77.4,22.7,29.54,NW,319,2.0,18.0,13,0.00,,,0.00,Wunderground v.1.15,2013-05-01 05:05:00,
2013-04-30 22:15:00,77.4,22.7,29.54,NNW,328,2.0,18.0,13,0.00,,,0.00,Wunderground v.1.15,2013-05-01 05:15:00,
2013-04-30 22:24:00,76.5,22.0,29.54,NNW,328,0.0,18.0,13,0.00,,,0.00,Wunderground v.1.15,2013-05-01 05:24:00,
2013-04-30 22:30:00,76.0,21.6,29.55,NNW,328,0.0,18.0,13,0.00,,,0.00,Wunderground v.1.15,2013-05-01 05:30:00,
2013-04-30 22:39:00,74.6,22.2,29.55,NNW,328,0.0,18.0,14,0.00,,,0.00,Wunderground v.1.15,2013-05-01 05:39:00,
2013-04-30 22:45:00,73.9,21.7,29.55,NNW,328,0.0,18.0,14,0.00,,,0.00,Wunderground v.1.15,2013-05-01 05:45:00,
2013-04-30 22:54:00,73.5,23.0,29.55,NW,316,0.0,18.0,15,0.00,,,0.00,Wunderground v.1.15,2013-05-01 05:54:00,
2013-04-30 23:04:00,72.5,22.2,29.55,NW,316,0.0,18.0,15,0.00,,,0.00,Wunderground v.1.15,2013-05-01 06:04:00,
2013-04-30 23:10:00,72.1,21.9,29.55,NW,316,0.0,18.0,15,0.00,,,0.00,Wunderground v.1.15,2013-05-01 06:10:00,
2013-04-30 23:19:00,71.6,21.5,29.56,NW,316,1.0,1.0,15,0.00,,,0.00,Wunderground v.1.15,2013-05-01 06:19:00,
2013-04-30 23:25:00,72.0,21.8,29.56,NW,316,0.0,18.0,15,0.00,,,0.00,Wunderground v.1.15,2013-05-01 06:25:00,
2013-04-30 23:34:00,72.0,21.8,29.55,NW,316,0.0,18.0,15,0.00,,,0.00,Wunderground v.1.15,2013-05-01 06:34:00,
2013-04-30 23:44:00,70.6,20.7,29.56,NW,316,0.0,18.0,15,0.00,,,0.00,Wunderground v.1.15,2013-05-01 06:44:00,
2013-04-30 23:50:00,71.1,19.4,29.56,NW,316,1.0,1.0,14,0.00,,,0.00,Wunderground v.1.15,2013-05-01 06:50:00,
2013-04-30 23:59:00,71.5,21.4,29.56,NW,316,0.0,18.0,15,0.00,,,0.00,Wunderground v.1.15,2013-05-01 06:59:00,